#timestamp,LO_Frequency,Hit,StdDev 
1566162015.4,286046997.4,N
1566162035.2,286046996.5,P
1566162055.1,286046999.0,N
1566162056.0,286046999.0,N
1566162075.8,286046998.3,N
1566162095.6,286046999.4,N
1566162115.5,286046997.8,N
1566162135.3,286046997.8,N
1566162155.2,286046997.8,N
1566162175.9,286046997.8,N
1566162195.7,286046997.8,N
1566162215.6,286046997.6,N
1566162235.4,286046996.6,Y
1566162255.2,286046998.5,P
1566162275.1,286046999.5,N
1566162276.0,286046999.5,N
1566162295.8,286046998.4,N
1566162315.7,286046998.2,N
1566162335.5,286046998.2,N
1566162355.3,286046998.1,Y
1566162375.2,286047002.3,P
1566162395.0,286047002.8,N
1566162395.9,286047002.8,N
1566162415.8,286047002.6,N
1566162435.6,286047000.0,N
1566162455.4,286047000.4,N
1566162475.3,286047001.0,N
1566162495.1,286046998.7,N
1566162515.8,286047001.2,N
1566162535.7,286046999.2,N
1566162555.5,286046998.7,N
1566162575.4,286046999.0,N
1566162595.2,286047000.4,N
1566162615.0,286047001.9,N
1566162615.9,286047001.9,N
1566162635.8,286047001.7,N
1566162655.6,286046999.8,N
1566162675.4,286047000.0,N
1566162695.3,286047000.2,N
1566162715.1,286047002.1,N
1566162735.9,286046999.7,N
1566162755.7,286047001.8,N
1566162775.5,286047001.5,N
1566162795.4,286047003.9,N
1566162815.2,286047002.2,N
1566162835.0,286047001.9,N
1566162835.9,286047001.9,N
1566162855.8,286047000.7,N
1566162875.6,286047002.1,N
1566162895.5,286047002.9,N
1566162915.3,286047005.5,Y
1566162935.1,286047004.3,P
1566162955.9,286046999.8,N
1566162975.7,286047000.1,N
1566162995.5,286047004.0,N
1566163015.4,286047003.0,N
1566163035.2,286047003.3,N
1566163055.1,286047003.2,N
1566163056.0,286047003.2,N
1566163075.8,286047003.6,N
1566163095.6,286047004.0,N
1566163115.5,286047001.6,N
1566163135.3,286047001.5,N
1566163155.1,286047000.2,N
1566163175.9,286047002.6,N
1566163195.7,286047001.8,N
1566163215.6,286047003.8,N
1566163235.4,286047001.4,N
1566163255.2,286047002.1,N
1566163275.1,286047002.1,N
1566163276.0,286047002.1,N
1566163295.8,286047000.5,N
1566163315.7,286047002.6,N
1566163335.5,286047002.4,N
1566163355.3,286047000.4,N
1566163375.2,286046998.2,N
1566163395.9,286047000.1,N
1566163415.7,286047000.3,N
1566163435.6,286047001.1,N
1566163455.4,286046998.3,N
1566163475.2,286047000.3,N
1566163495.1,286047002.5,N
1566163496.0,286047002.5,N
1566163515.8,286047002.6,N
1566163535.7,286047001.5,N
1566163555.5,286047004.1,N
1566163575.3,286047003.3,N
1566163595.2,286047003.0,N
1566163615.0,286047003.7,N
1566163615.9,286047003.7,N
1566163635.8,286047001.3,N
1566163655.6,286047004.2,N
1566163675.4,286047001.3,N
1566163695.3,286047005.9,Y
1566163715.1,286047001.9,P
1566163735.8,286047001.5,P
1566163755.7,286047004.0,P
1566163775.5,286047001.3,N
1566163795.4,286047000.4,N
1566163815.2,286047000.1,N
1566163835.0,286047000.2,N
1566163835.9,286047000.2,N
1566163855.8,286046999.6,N
1566163875.6,286046999.3,N
1566163895.4,286046998.6,N
1566163915.3,286046999.0,N
1566163935.1,286046997.4,N
1566163955.9,286046999.6,N
1566163975.7,286046996.5,N
1566163995.5,286046997.9,N
1566164015.4,286046998.0,N
1566164035.2,286046995.9,N
1566164055.0,286046996.3,N
1566164055.9,286046996.3,N
1566164075.8,286046995.5,N
1566164095.6,286046993.7,N
1566164115.5,286046995.4,N
1566164135.3,286046995.7,N
1566164155.1,286046995.9,N
1566164175.9,286046997.8,N
1566164195.7,286046995.0,N
1566164215.5,286046995.9,N
1566164235.4,286046995.8,N
1566164255.2,286046995.5,N
1566164275.1,286046995.9,N
1566164276.0,286046995.9,N
1566164295.8,286046993.8,N
1566164315.6,286046993.7,Y
1566164335.5,286046995.2,P
1566164355.3,286046996.3,P
1566164375.2,286046995.1,P
1566164395.9,286046998.0,N
1566164415.7,286046997.6,N
1566164435.6,286046997.2,N
1566164455.4,286046999.1,N
1566164475.2,286046998.3,N
1566164495.1,286046997.4,N
1566164496.0,286046997.4,N
1566164515.8,286046996.9,N
1566164535.7,286046999.2,N
1566164555.5,286046996.9,N
1566164575.3,286046997.5,N
1566164595.2,286046996.2,Y
1566164615.0,286046996.5,P
1566164615.9,286046996.5,P
1566164635.7,286046996.5,P
1566164655.6,286046999.4,N
1566164675.4,286046996.6,Y
1566164695.3,286047003.0,P
1566164715.1,286047006.0,N
1566164716.0,286047006.0,N
1566164735.8,286047003.9,N
1566164755.7,286047002.3,N
1566164775.5,286047002.2,N
1566164795.3,286047002.1,N
1566164815.2,286047003.1,N
1566164835.0,286047003.8,N
1566164835.9,286047003.8,N
1566164855.8,286047002.7,N
1566164875.6,286047002.7,N
1566164895.4,286047002.6,N
1566164915.3,286047002.7,N
1566164935.1,286047004.3,N
1566164955.9,286047004.4,N
1566164975.7,286047002.5,N
1566164995.5,286047002.7,N
1566165015.4,286047000.4,N
1566165035.2,286047001.0,N
1566165055.0,286046999.7,N
1566165055.9,286046999.7,N
1566165075.8,286047002.1,N
1566165095.6,286047002.7,N
1566165115.4,286047000.0,N
1566165135.3,286047002.4,N
1566165155.1,286047011.9,Y
1566165175.9,286046996.6,P
1566165195.7,286046999.6,N
1566165215.5,286046996.7,N
1566165235.4,286046996.7,N
1566165255.2,286046998.3,N
1566165275.0,286046998.9,N
1566165276.0,286046998.9,N
1566165295.8,286046996.6,N
1566165315.6,286046998.8,N
1566165335.5,286046997.4,N
1566165355.3,286046997.2,N
1566165375.1,286046998.0,N
1566165395.9,286046995.7,N
1566165415.7,286046995.2,N
1566165435.5,286046997.6,N
1566165455.4,286046995.1,N
1566165475.2,286046995.5,N
1566165495.1,286046995.0,N
1566165496.0,286046995.0,N
1566165515.8,286046995.4,N
1566165535.6,286046997.4,N
1566165555.5,286046996.8,N
1566165575.3,286046996.7,N
1566165595.1,286046999.3,N
